Wind_Speed
13 17 17 17 13 12 18 16 21 20 17 10 2 1 7 3 5 3 9 17 15 13 11 9 8 8 7 7 6 6 6 6 5 5 6 7 7 7 7 6 7 5 5 6 5 5 6 6 8
14 16 16 17 17 14 12 17 17 17 19 13 5 0 5 10 10 7 14 17 17 12 10 8 6 6 6 6 5 5 6 6 6 5 5 6 6 6 5 5 4 5 4 4 4 4 6 5 6
8 12 10 10 9 12 12 12 15 17 17 16 11 5 9 13 12 11 12 14 16 12 11 8 6 6 5 4 5 5 5 6 6 6 6 5 5 5 5 4 3 3 4 3 3 4 4 4 6
9 10 3 2 7 10 12 14 15 18 18 19 15 10 15 12 7 10 13 12 13 12 10 8 6 5 5 5 6 5 5 6 5 5 6 6 6 5 3 3 2 3 3 3 3 3 5 3 5
7 6 3 6 6 8 9 10 12 16 19 20 18 16 13 13 11 12 13 13 11 10 9 7 6 6 6 6 5 5 4 5 5 4 4 5 4 4 3 2 2 2 3 5 3 3 4 4 3
8 8 8 9 5 6 7 7 10 13 17 21 20 18 13 12 12 10 11 12 13 9 7 7 6 6 5 5 5 5 5 4 5 4 3 3 2 1 2 2 2 2 2 2 3 3 5 6 5
9 9 7 8 7 7 6 5 6 12 17 19 20 18 14 11 11 9 10 12 12 11 8 7 6 6 6 5 5 5 5 5 4 4 4 4 3 2 1 1 1 2 2 2 4 4 4 7 6
9 10 7 6 8 7 5 5 5 9 13 15 16 16 16 13 10 9 11 13 11 10 10 9 7 6 6 4 4 5 6 5 4 2 3 2 2 2 1 1 1 2 2 2 4 4 3 5 5
13 9 7 7 5 9 9 5 6 10 11 11 15 15 15 13 12 10 9 9 10 10 9 8 8 7 7 6 5 6 7 7 6 5 3 2 1 1 2 2 1 2 4 4 4 4 4 4 4
13 10 5 5 6 5 8 5 4 8 12 10 14 11 12 14 12 11 10 6 6 5 7 7 9 8 7 7 7 9 9 10 9 8 6 5 4 5 4 4 2 2 2 4 5 5 6 5 5
4 7 4 3 7 6 5 4 2 6 7 10 11 11 10 11 12 10 9 7 6 7 8 8 10 10 11 10 10 10 11 11 11 10 9 9 8 7 6 6 6 4 4 4 5 5 7 7 7
6 3 4 2 1 2 4 4 2 1 6 14 12 10 8 10 11 11 9 6 3 2 6 8 9 12 14 14 14 14 14 14 14 14 13 12 11 11 10 9 12 7 6 6 7 7 6 7 9
3 2 2 2 2 2 4 4 7 1 1 8 12 13 8 8 9 8 8 7 4 1 2 5 8 11 12 8 17 19 19 18 17 16 16 15 14 12 12 12 10 11 11 9 12 10 9 10 11
3 1 5 3 2 2 5 7 8 4 4 4 7 10 8 7 9 10 8 7 6 6 4 4 6 8 5 15 18 13 21 19 18 17 16 17 15 14 13 14 13 13 15 14 16 17 15 13 14
3 5 5 6 6 5 4 11 11 7 7 2 5 5 11 8 8 10 10 8 8 10 10 6 13 27 6 18 15 14 15 11 17 15 15 15 14 16 15 15 14 14 15 15 17 16 16 17 18
7 8 11 13 14 14 12 16 10 8 6 5 6 5 7 12 7 8 9 7 11 12 10 10 21 21 12 9 13 16 12 13 16 17 13 13 15 15 14 14 13 15 16 14 15 17 19 18 19
6 11 12 4 13 16 17 18 13 9 6 6 4 5 3 8 9 7 7 9 12 14 12 13 15 22 21 16 16 16 14 17 14 14 13 12 11 13 14 15 16 17 16 18 19 23 21 20 20
4 7 8 11 4 14 18 19 15 12 9 9 10 8 5 4 9 6 5 10 11 14 13 11 13 20 20 19 18 20 20 25 15 13 12 10 13 14 15 16 17 17 17 18 19 23 24 25 25
8 7 8 7 8 6 12 12 9 8 6 11 15 12 9 2 7 7 4 6 10 13 15 10 14 18 16 13 24 6 15 18 13 7 10 9 12 14 14 16 16 17 18 19 21 23 25 25 24
5 3 7 9 8 6 5 8 4 3 6 11 17 14 11 4 4 5 4 5 8 10 14 13 15 14 11 8 14 18 16 10 7 3 5 7 10 13 14 17 18 17 17 19 21 19 19 21 22
5 5 8 6 6 3 6 8 4 10 11 14 15 18 13 6 6 4 5 5 6 10 13 15 15 12 8 6 5 9 11 7 3 2 5 9 12 15 16 16 16 16 17 18 17 17 16 15 18
4 7 7 5 3 2 4 3 12 12 12 11 11 6 11 9 6 4 4 5 6 8 10 14 14 11 7 3 7 2 4 1 7 7 9 12 15 15 13 14 15 16 17 17 16 15 12 13 16
1 3 1 3 5 5 6 2 4 7 8 9 1 8 7 7 9 6 3 4 5 8 11 12 13 11 5 4 2 3 2 5 9 10 11 13 14 11 10 10 12 12 11 11 12 12 12 11 13
5 4 3 5 7 3 6 1 2 3 8 4 2 6 6 5 9 6 4 5 6 10 11 11 12 10 8 5 4 4 3 4 7 8 11 13 8 7 9 10 10 8 9 9 8 8 8 9 9
9 7 1 2 2 5 5 4 4 6 8 7 5 7 7 7 3 2 3 6 9 12 14 11 11 10 9 6 7 6 8 6 6 8 11 13 8 7 9 10 8 8 8 7 7 7 7 5 7
6 8 5 4 3 3 5 2 5 7 6 3 6 8 6 3 4 4 4 6 9 12 11 9 11 10 9 8 8 8 10 8 7 8 11 12 9 6 10 10 10 10 9 6 8 6 4 6 7
11 6 8 4 2 2 3 3 5 3 1 3 7 6 6 10 6 8 7 8 9 11 9 11 13 10 9 10 4 19 12 10 6 10 13 13 10 5 7 9 10 9 11 11 9 7 5 5 6
15 10 5 5 4 3 3 4 5 4 2 9 5 10 6 12 8 12 12 11 8 10 12 14 17 9 12 15 16 15 11 9 5 9 11 11 10 8 7 9 10 10 9 8 9 9 7 6 5
16 16 12 5 4 7 2 3 4 3 9 13 14 15 15 16 12 15 15 11 15 11 12 16 17 21 16 25 19 15 11 7 4 6 8 9 10 9 7 7 8 9 8 8 8 8 9 8 6
10 10 12 8 6 6 3 3 1 3 10 16 16 20 16 13 16 16 15 14 16 9 12 17 18 18 16 25 14 14 9 5 5 6 6 8 10 9 7 6 6 7 7 8 8 9 9 8 6
Wind_Direction
87 81 66 75 75 83 82 81 72 65 60 69 150 201 271 212 197 322 181 153 155 159 149 145 135 134 137 141 135 146 148 142 140 142 142 142 145 141 127 119 109 109 109 104 104 100 100 89 97
91 82 90 81 93 105 96 91 72 58 51 72 85 41 217 267 232 261 182 158 155 153 142 147 145 144 143 139 138 140 148 146 144 134 128 135 139 136 127 132 119 117 122 114 98 97 110 104 98
107 90 99 100 87 108 110 91 58 66 54 45 50 84 87 79 96 138 158 158 152 148 145 152 155 155 136 145 142 139 150 148 149 143 134 132 132 133 142 135 144 141 148 161 126 123 102 124 108
105 114 146 69 114 105 102 78 65 60 52 39 52 65 93 104 97 130 147 153 151 141 145 153 157 157 150 167 156 147 148 144 146 145 142 134 134 135 132 129 127 139 145 171 183 132 142 115 130
132 130 151 159 134 124 107 81 65 57 54 44 50 73 95 93 112 120 140 144 136 138 145 148 155 162 164 175 171 157 153 146 140 142 140 135 138 147 146 158 160 147 171 179 191 132 147 171 145
120 151 172 181 191 151 133 92 59 59 58 54 43 49 78 105 120 124 136 145 138 137 146 144 153 156 165 184 180 169 165 162 139 139 139 131 121 129 145 164 171 157 174 185 209 177 152 177 174
136 163 163 211 196 182 151 115 68 48 65 57 50 44 58 87 115 148 152 155 147 145 149 151 155 162 168 185 190 176 169 163 151 136 130 124 124 123 129 180 206 184 171 206 235 207 173 192 199
172 178 182 200 220 216 176 154 91 60 64 73 62 50 52 62 91 133 153 157 154 157 166 166 164 170 172 181 205 189 181 181 183 166 130 117 98 87 81 119 166 242 223 214 221 209 206 197 211
209 200 185 214 248 229 183 157 132 66 59 73 66 60 53 62 74 101 124 148 156 172 182 182 184 187 186 186 199 220 209 207 209 213 214 217 237 266 291 267 233 211 228 208 239 261 237 213 211
131 126 135 223 244 250 215 210 58 48 55 61 59 57 54 58 69 89 94 105 168 184 203 207 207 209 208 205 210 214 222 228 225 222 231 244 250 264 276 259 223 255 266 261 240 248 261 249 237
125 129 150 179 225 253 241 225 290 36 46 55 53 45 40 48 64 75 88 103 141 195 216 226 230 233 225 221 222 228 232 230 240 240 239 249 256 257 263 246 250 233 236 240 254 250 253 260 258
149 118 127 88 329 281 221 241 345 111 49 60 46 36 43 41 57 65 76 95 105 187 228 233 241 239 238 239 239 236 234 240 239 245 251 252 258 266 267 258 255 244 235 241 239 244 257 256 264
145 167 185 198 250 210 221 268 261 266 65 53 43 41 49 49 58 67 64 66 82 115 266 239 249 246 247 261 260 249 243 241 246 251 255 256 255 252 259 260 258 255 258 241 230 238 248 259 259
196 234 196 252 257 240 225 249 240 272 291 52 20 29 61 74 63 62 64 46 20 344 314 254 243 241 242 240 245 240 247 245 254 253 259 259 263 266 256 261 261 254 252 252 246 250 254 245 255
248 256 262 282 275 272 314 255 262 270 286 317 339 13 50 69 77 64 60 52 15 344 319 356 341 20 315 240 261 266 272 233 239 246 252 260 265 268 273 260 256 254 254 255 257 254 255 253 253
238 279 293 266 259 262 276 279 276 274 303 299 315 327 43 50 66 72 61 35 11 358 341 292 327 3 0 291 297 277 275 227 234 240 249 259 262 264 265 255 250 259 260 266 264 262 259 254 253
260 277 299 297 242 244 261 267 266 282 281 313 292 314 357 44 45 61 57 40 20 11 343 343 342 344 349 325 306 286 238 222 216 236 239 246 253 259 262 262 261 267 273 275 257 269 264 259 257
266 284 314 338 266 235 249 258 270 288 292 298 291 284 293 6 16 6 46 41 29 10 8 345 334 354 345 350 322 267 233 217 209 232 230 228 246 259 263 273 272 269 272 273 271 269 272 264 259
271 279 315 357 350 225 236 255 277 287 279 300 301 287 299 316 8 13 24 30 32 7 3 351 347 356 345 356 12 273 202 198 208 205 221 234 254 268 279 282 279 279 279 283 283 278 271 263 256
229 290 330 323 324 257 254 251 292 285 307 308 296 286 285 288 347 1 31 21 27 7 357 348 349 353 341 355 21 63 156 166 170 213 269 274 281 285 287 286 286 289 288 294 292 283 280 262 254
226 289 312 342 354 265 252 288 292 320 327 301 280 251 248 250 291 346 19 24 10 357 347 341 343 347 343 17 42 79 115 123 123 312 307 309 304 292 284 289 296 296 297 300 295 289 282 270 257
297 298 279 308 346 334 335 306 316 318 324 324 316 227 227 242 282 284 313 6 2 340 335 337 334 334 328 347 36 178 162 90 1 335 314 305 299 296 292 293 300 299 302 295 287 291 285 273 260
234 345 271 271 318 332 306 279 294 332 341 345 360 155 196 234 257 272 297 329 328 324 322 329 329 329 328 287 341 32 222 260 318 303 309 314 309 303 300 301 298 305 306 302 297 299 293 274 259
198 226 273 303 321 340 331 324 23 318 320 358 149 173 169 219 252 257 305 305 315 322 319 323 331 332 323 252 256 259 254 262 283 309 316 328 337 343 335 328 318 310 325 324 308 312 303 287 270
227 254 328 338 12 199 358 317 312 339 284 298 258 184 188 223 243 246 343 326 325 329 317 321 329 327 305 261 248 256 250 261 290 313 327 345 351 4 0 4 6 357 339 333 310 316 318 322 308
243 245 186 179 188 256 334 291 322 346 287 237 181 179 187 230 230 236 270 290 304 313 309 335 325 315 294 270 236 249 258 267 282 319 339 351 357 2 14 8 6 354 360 14 4 344 318 326 338
235 231 227 178 138 299 308 270 345 28 30 233 192 219 337 331 270 252 254 275 289 308 310 328 336 316 275 240 265 286 254 263 293 339 343 353 355 2 12 8 7 5 26 28 9 358 354 346 344
233 240 212 180 134 220 256 265 280 294 205 213 230 234 299 328 291 250 273 280 271 298 323 327 329 308 267 221 267 250 241 254 306 336 337 353 357 8 14 9 6 4 20 20 3 11 15 11 356
219 221 224 201 173 159 190 243 39 37 222 227 241 263 269 301 271 256 272 266 261 289 323 338 329 321 253 242 230 227 223 244 294 328 337 348 0 11 13 16 13 6 21 22 19 23 27 27 28
196 206 219 221 215 207 198 232 151 260 234 244 260 263 282 290 282 267 267 266 257 283 332 342 348 358 284 233 203 198 195 242 302 329 343 2 5 8 11 11 25 26 24 29 29 27 28 34 36
Height
3177 3177 3176 3175 3179 3176 3175 3176 3175 3174 3174 3173 3173 3172 3173 3172 3173 3177 3174 3176 3179 3182 3183 3185 3186 3188 3190 3191 3192 3193 3194 3195 3196 3197 3198 3199 3200 3201 3202 3203 3203 3204 3204 3205 3205 3205 3206 3206 3206
3180 3180 3180 3178 3179 3178 3179 3178 3177 3177 3175 3174 3173 3172 3173 3172 3172 3174 3175 3177 3180 3183 3185 3187 3188 3189 3191 3193 3194 3195 3196 3197 3198 3199 3200 3200 3201 3202 3203 3203 3204 3205 3205 3206 3203 3206 3206 3207 3208
3182 3182 3183 3181 3181 3180 3180 3180 3181 3180 3179 3178 3175 3174 3173 3173 3173 3176 3177 3180 3182 3184 3186 3188 3189 3190 3192 3194 3195 3196 3197 3198 3199 3200 3201 3202 3203 3203 3204 3204 3205 3206 3206 3207 3207 3206 3207 3208 3209
3184 3185 3186 3185 3183 3184 3184 3184 3184 3183 3180 3179 3177 3175 3175 3175 3176 3178 3179 3182 3184 3185 3187 3189 3191 3192 3193 3195 3196 3197 3198 3199 3200 3201 3201 3203 3204 3204 3204 3205 3205 3205 3207 3207 3207 3207 3206 3208 3210
3185 3185 3186 3186 3186 3186 3187 3187 3185 3184 3183 3182 3180 3177 3177 3177 3178 3179 3181 3183 3185 3186 3188 3190 3192 3193 3194 3196 3197 3198 3199 3200 3201 3202 3202 3203 3204 3205 3206 3206 3206 3207 3207 3207 3208 3208 3209 3209 3210
3187 3187 3187 3187 3187 3188 3188 3189 3188 3187 3185 3184 3183 3181 3179 3178 3180 3181 3182 3184 3185 3187 3189 3191 3193 3194 3196 3197 3198 3199 3200 3201 3201 3203 3203 3204 3204 3205 3206 3207 3207 3208 3208 3208 3208 3208 3208 3209 3210
3190 3189 3189 3189 3189 3190 3190 3190 3190 3190 3187 3186 3186 3184 3183 3179 3180 3182 3183 3185 3186 3188 3190 3192 3193 3194 3196 3198 3199 3199 3200 3201 3203 3203 3204 3205 3205 3206 3206 3207 3208 3209 3209 3209 3208 3209 3209 3209 3210
3190 3191 3191 3190 3190 3190 3192 3192 3192 3193 3191 3188 3188 3187 3185 3183 3181 3182 3183 3185 3187 3189 3191 3192 3194 3195 3197 3199 3200 3201 3201 3202 3203 3204 3205 3206 3206 3206 3207 3207 3207 3208 3209 3209 3208 3209 3209 3209 3209
3189 3192 3191 3191 3191 3191 3192 3192 3192 3193 3192 3190 3188 3188 3188 3186 3184 3184 3184 3186 3187 3189 3191 3193 3194 3195 3197 3198 3200 3202 3202 3202 3203 3204 3205 3206 3206 3207 3207 3207 3207 3207 3208 3209 3208 3209 3209 3210 3210
3191 3193 3193 3193 3192 3192 3193 3193 3194 3195 3194 3193 3191 3189 3190 3188 3186 3186 3186 3187 3189 3190 3192 3193 3194 3195 3196 3197 3199 3199 3201 3202 3202 3203 3204 3205 3206 3206 3207 3207 3207 3208 3207 3208 3208 3208 3209 3210 3210
3190 3192 3192 3193 3192 3192 3193 3193 3195 3195 3195 3194 3193 3191 3190 3190 3188 3188 3188 3188 3189 3190 3191 3192 3193 3195 3195 3196 3197 3198 3199 3200 3201 3201 3202 3203 3204 3205 3206 3206 3205 3206 3206 3207 3207 3207 3207 3208 3209
3191 3193 3193 3193 3193 3193 3194 3195 3195 3195 3196 3196 3194 3192 3191 3191 3189 3190 3190 3190 3190 3190 3191 3191 3192 3193 3194 3195 3196 3196 3196 3198 3199 3199 3200 3201 3202 3203 3203 3203 3196 3203 3205 3206 3206 3207 3206 3206 3207
3191 3192 3192 3194 3194 3193 3195 3195 3197 3196 3197 3197 3195 3193 3193 3192 3191 3191 3192 3191 3192 3191 3190 3191 3191 3191 3193 3196 3193 3193 3194 3195 3196 3197 3197 3198 3199 3200 3201 3201 3201 3202 3202 3204 3204 3204 3205 3205 3205
3191 3192 3193 3193 3194 3194 3195 3196 3196 3196 3197 3197 3196 3195 3194 3193 3193 3193 3193 3193 3192 3191 3191 3192 3192 3189 3191 3188 3185 3188 3190 3191 3193 3194 3194 3195 3197 3197 3198 3199 3199 3199 3200 3200 3201 3202 3201 3202 3202
3191 3192 3193 3193 3194 3194 3195 3196 3195 3196 3196 3197 3197 3196 3195 3194 3194 3193 3194 3194 3193 3190 3190 3189 3191 3174 3180 3181 3180 3181 3181 3182 3189 3191 3192 3193 3194 3194 3195 3196 3196 3196 3197 3197 3198 3198 3199 3199 3199
3191 3192 3192 3192 3193 3193 3194 3193 3195 3196 3195 3196 3196 3196 3195 3195 3195 3193 3193 3193 3192 3190 3191 3188 3186 3183 3181 3181 3180 3180 3179 3182 3186 3188 3188 3190 3191 3192 3193 3193 3193 3192 3193 3194 3195 3195 3195 3195 3195
3191 3191 3191 3190 3190 3191 3192 3191 3194 3195 3194 3194 3195 3195 3195 3195 3195 3194 3192 3193 3192 3190 3187 3187 3185 3183 3180 3177 3176 3176 3176 3180 3183 3186 3187 3188 3190 3190 3191 3191 3190 3189 3189 3189 3189 3191 3191 3191 3191
3190 3190 3189 3189 3188 3188 3189 3189 3192 3193 3193 3193 3193 3194 3194 3195 3196 3193 3193 3191 3191 3190 3189 3187 3187 3183 3179 3175 3170 3167 3170 3176 3180 3183 3185 3186 3187 3188 3188 3188 3187 3186 3185 3184 3185 3184 3184 3185 3186
3189 3189 3189 3187 3186 3186 3188 3189 3191 3191 3192 3191 3190 3191 3193 3194 3195 3193 3190 3190 3190 3191 3189 3187 3185 3183 3179 3175 3168 3161 3163 3173 3179 3180 3181 3183 3185 3186 3185 3184 3182 3181 3180 3179 3179 3178 3178 3179 3180
3187 3188 3188 3188 3187 3187 3187 3188 3189 3190 3189 3188 3188 3190 3192 3194 3194 3193 3189 3193 3191 3191 3190 3187 3185 3184 3181 3178 3172 3165 3170 3176 3179 3179 3181 3184 3184 3183 3181 3179 3177 3176 3175 3174 3173 3172 3172 3172 3173
3186 3186 3187 3187 3186 3186 3187 3187 3187 3188 3187 3185 3183 3186 3189 3192 3192 3193 3192 3191 3191 3191 3191 3189 3185 3184 3181 3179 3177 3175 3178 3180 3181 3182 3181 3182 3181 3179 3177 3176 3173 3172 3171 3169 3168 3168 3168 3167 3168
3184 3185 3185 3186 3187 3186 3187 3188 3186 3184 3184 3182 3179 3182 3187 3190 3191 3192 3190 3190 3191 3190 3190 3189 3187 3185 3182 3181 3179 3179 3180 3181 3181 3182 3181 3180 3179 3176 3174 3172 3170 3169 3167 3166 3164 3163 3164 3164 3164
3184 3184 3184 3185 3186 3187 3186 3187 3184 3184 3183 3181 3180 3181 3184 3188 3189 3189 3190 3191 3190 3190 3189 3189 3188 3185 3183 3181 3182 3182 3182 3183 3183 3183 3181 3179 3176 3174 3172 3170 3168 3166 3165 3163 3161 3160 3160 3160 3161
3182 3183 3184 3185 3185 3185 3185 3185 3183 3182 3182 3181 3181 3181 3183 3185 3187 3187 3188 3189 3189 3189 3189 3188 3187 3185 3184 3184 3184 3185 3184 3184 3184 3183 3181 3178 3174 3172 3170 3167 3166 3164 3162 3160 3159 3158 3157 3157 3156
3180 3181 3182 3185 3186 3186 3184 3183 3181 3181 3180 3180 3179 3181 3182 3184 3185 3186 3187 3186 3185 3185 3185 3185 3185 3184 3184 3184 3185 3187 3186 3185 3183 3182 3179 3176 3173 3171 3169 3167 3164 3163 3161 3159 3158 3157 3156 3155 3155
3178 3179 3181 3185 3189 3184 3182 3182 3180 3179 3178 3179 3180 3180 3182 3182 3183 3184 3184 3184 3183 3183 3184 3184 3184 3183 3183 3183 3184 3185 3186 3185 3183 3181 3178 3175 3172 3170 3168 3165 3163 3162 3160 3157 3156 3156 3155 3154 3153
3175 3177 3179 3179 3183 3184 3182 3182 3179 3178 3177 3178 3179 3180 3181 3181 3181 3181 3182 3182 3182 3180 3181 3182 3180 3179 3180 3181 3181 3183 3183 3183 3181 3178 3177 3174 3172 3170 3168 3165 3164 3163 3159 3157 3156 3156 3154 3153 3152
3172 3174 3177 3177 3183 3184 3181 3179 3178 3177 3177 3178 3178 3178 3178 3179 3180 3180 3179 3179 3179 3178 3180 3179 3176 3175 3176 3176 3177 3177 3180 3181 3179 3177 3176 3173 3171 3169 3167 3165 3164 3162 3160 3158 3157 3156 3154 3152 3152
3167 3169 3172 3175 3177 3179 3182 3178 3176 3175 3177 3177 3177 3177 3177 3177 3177 3178 3179 3180 3178 3178 3179 3177 3172 3169 3167 3165 3169 3173 3177 3178 3177 3176 3174 3173 3171 3169 3167 3166 3164 3164 3161 3160 3158 3156 3154 3153 3153
3164 3165 3168 3171 3175 3175 3175 3175 3174 3174 3174 3174 3176 3176 3176 3176 3175 3175 3176 3176 3176 3178 3177 3175 3170 3165 3157 3152 3165 3171 3174 3177 3177 3176 3174 3173 3171 3169 3168 3166 3165 3164 3163 3162 3160 3158 3156 3154 3154